Regional Weather Roundup
Issued by NWS

Home | Current Version | Previous Version | Graphics & Text | Print | Product List | Glossary Off
Versions: 1 2 3 4 5 6 7 8 9 10 11 12 13 14 15 16 17 18 19 20 21 22 23 24 25 26 27 28 29 30 31 32 33 34 35 36 37 38 39 40 41 42 43 44 45 46 47 48 49 50

000
ASUS43 KTOP 062108
RWRKS

WEATHER ROUNDUP FOR KANSAS
NATIONAL WEATHER SERVICE GOODLAND KS
300 PM CST TUE DEC 06 2016

NOTE:  "FAIR" INDICATES FEW OR NO CLOUDS BELOW 12,000 FEET WITH NO
SIGNIFICANT WEATHER AND/OR OBSTRUCTIONS TO VISIBILITY.

KSZ001>006-013>018-027>032-041>047-062200-
NORTHWEST KANSAS

CITY           SKY/WX    TMP DP  RH WIND       PRES   REMARKS
GOODLAND       SUNNY     33  -3  21 CALM      29.96F
HAYS           SUNNY     38   6  26 NW12      30.05F WCI  30
HILL CITY      SUNNY     37   4  25 NW6       30.04F
RUSSELL        SUNNY     38   7  27 N9        30.04S
$$

KSZ061>065-074>080-084>089-062200-
SOUTHWEST KANSAS

CITY           SKY/WX    TMP DP  RH WIND       PRES   REMARKS
DODGE CITY     MOSUNNY   35   4  27 N6        30.05F
ELKHART          N/A     32   3  29 SE5         N/A
GARDEN CITY    MOSUNNY   35  -2  20 N5        30.02F
GREAT BEND     MOSUNNY   38   6  26 N8        30.06S
LIBERAL        CLOUDY    34   7  32 CALM      30.05S
PRATT          MOSUNNY   35   8  32 N7        30.06S
$$

KSZ066>073-081>083-090>101-062200-
SOUTHEAST KANSAS

CITY           SKY/WX    TMP DP  RH WIND       PRES   REMARKS
CHANUTE        SUNNY     42  15  33 N10G17    30.06S
COFFEYVILLE    MOSUNNY   42  20  41 N14       30.08R
HUTCHINSON     SUNNY     40  11  30 NW6       30.06F
MEDICINE LODGE   N/A     39  14  36 N10       30.07R WCI  32
NEWTON         SUNNY     38  14  37 N7        30.06F
PARSONS        MOSUNNY   42  17  36 N10       30.08R
WICHITA INTL   MOSUNNY   39  14  36 N10       30.06F WCI  32
WICHITA JABRA  SUNNY     41  14  33 N8        30.06F
WINFIELD       SUNNY     43  17  35 N13       30.07F
$$

KSZ007>012-019>026-033>040-048>060-102>105-062200-
NORTHEAST KANSAS

CITY           SKY/WX    TMP DP  RH WIND       PRES   REMARKS
CONCORDIA      SUNNY     38  12  34 NW12      30.05S WCI  30
EMPORIA        SUNNY     39  11  31 N9        30.06R
LAWRENCE       SUNNY     39  14  36 NW10      30.06F WCI  32
MANHATTAN      SUNNY     41  13  31 VRB7      30.06S
MARYSVILLE     SUNNY     37  12  35 NW9G20    30.04R
OLATHE IND     SUNNY     37  14  38 NW8       30.05F
OLATHE EXE     SUNNY     36  12  37 NW12      30.04F WCI  28
SALINA         SUNNY     40  10  29 NW9       30.07S
TOPEKA BILLARD SUNNY     39  12  33 NW6       30.06F
TOPEKA FORBES  SUNNY     40  12  32 NW14      30.06S WCI  32
$$




USA.gov is the U.S. government's official web portal to all federal, state and local government web resources and services.